Port Heiden, AK

11:20 PM AKST on February 24, 2017 (GMT -0900)
Port Heiden

Weather History for PAPH - March, 2013

Change the Weather History Date:

Friday, March 29, 2013

  Actual Average Record
Temperature  
Mean Temperature 37 °F -  
Max Temperature 41 °F 31 °F 44 °F (2015)
Min Temperature 32 °F 19 °F 6 °F (2007)
Degree Days  
Heating Degree Days 28    
Moisture  
Dew Point 28 °F    
Average Humidity 72    
Maximum Humidity 81    
Minimum Humidity 61    
Precipitation  
Precipitation 0.00 in - - ()
Sea Level Pressure  
Sea Level Pressure 29.67 in    
Wind  
Wind Speed 10 mph (SE)    
Max Wind Speed 22 mph    
Max Gust Speed 25 mph    
Visibility 10 miles    
Events      
Averages and records for this station are not official NWS values.
T = Trace of Precipitation, MM = Missing Value Source: NWS Daily Summary

Daily Weather History Graph

Daily Weather History Graph

Search for Another Location

Airport or City:

Trip Planner

Search our weather history database for the weather conditions in past years. The results will help you decide how hot, cold, wet, or windy it might be!

Date:

Astronomy

Mar. 29, 2013 Rise Set
Actual Time 8:10 AM AKDT 9:08 PM AKDT
Civil Twilight 7:31 AM AKDT 9:47 PM AKDT
Nautical Twilight 6:44 AM AKDT 10:35 PM AKDT
Astronomical Twilight 5:52 AM AKDT 11:27 PM AKDT
Moon No Moon Rise 8:51 AM AKDT (3/29)
Length of Visible Light 14h 15m
Length of Day
12h 58m
Waning Gibbous, 92% of the Moon is Illuminated
Mar 29
Waning Gibbous
Apr 2
Last Quarter
Apr 10
New
Apr 18
First Quarter
Apr 25
Full

Hourly Weather History & Observations

Time (AKDT) Temp. Windchill Dew Point Humidity Pressure Visibility Wind Dir Wind Speed Gust Speed Precip Events Conditions
12:16 AM 32.0 °F 27.5 °F 26.6 °F 80% 29.58 in 10.0 mi SE 4.6 mph - N/A   Clear
12:36 AM 33.8 °F 28.6 °F 26.6 °F 75% 29.58 in 10.0 mi ESE 5.8 mph - N/A   Clear
12:56 AM 32.0 °F 27.5 °F 24.8 °F 75% 29.58 in 10.0 mi ESE 4.6 mph - N/A   Clear
1:16 AM 33.8 °F 27.7 °F 24.8 °F 70% 29.58 in 10.0 mi ESE 6.9 mph - N/A   Clear
1:36 AM 35.6 °F 28.0 °F 26.6 °F 70% 29.58 in 10.0 mi SSE 10.4 mph - N/A   Clear
1:56 AM 33.8 °F 26.4 °F 26.6 °F 75% 29.58 in 10.0 mi SE 9.2 mph - N/A   Clear
2:16 AM 33.8 °F 27.0 °F 24.8 °F 70% 29.59 in 10.0 mi SSE 8.1 mph - N/A   Clear
2:36 AM 33.8 °F 27.7 °F 26.6 °F 75% 29.59 in 10.0 mi SE 6.9 mph - N/A   Clear
2:56 AM 33.8 °F 26.4 °F 26.6 °F 75% 29.59 in 10.0 mi SE 9.2 mph - N/A   Scattered Clouds
3:16 AM 33.8 °F 27.0 °F 26.6 °F 75% 29.59 in 10.0 mi SSE 8.1 mph - N/A   Scattered Clouds
3:56 AM 35.6 °F 27.1 °F 28.4 °F 75% 29.60 in 10.0 mi SE 12.7 mph 17.3 mph N/A   Overcast
4:16 AM 35.6 °F 28.6 °F 28.4 °F 75% 29.60 in 10.0 mi SE 9.2 mph - N/A   Overcast
4:36 AM 35.6 °F 28.6 °F 28.4 °F 75% 29.60 in 10.0 mi SE 9.2 mph - N/A   Partly Cloudy
4:56 AM 35.6 °F 27.5 °F 28.4 °F 75% 29.60 in 10.0 mi SE 11.5 mph - N/A   Clear
5:16 AM 35.6 °F 28.6 °F 28.4 °F 75% 29.60 in 10.0 mi SE 9.2 mph - N/A   Clear
5:36 AM 35.6 °F 27.1 °F 28.4 °F 75% 29.60 in 10.0 mi SE 12.7 mph - N/A   Clear
5:56 AM 35.6 °F 27.5 °F 28.4 °F 75% 29.60 in 10.0 mi SE 11.5 mph - N/A   Scattered Clouds
6:16 AM 35.6 °F 27.1 °F 28.4 °F 75% 29.60 in 10.0 mi SE 12.7 mph - N/A   Mostly Cloudy
6:36 AM 35.6 °F 27.1 °F 26.6 °F 70% 29.60 in 10.0 mi SSE 12.7 mph - N/A   Mostly Cloudy
6:56 AM 35.6 °F 26.6 °F 26.6 °F 70% 29.60 in 10.0 mi SE 13.8 mph - N/A   Mostly Cloudy
7:16 AM 35.6 °F 26.6 °F 26.6 °F 70% 29.60 in 10.0 mi SE 13.8 mph - N/A   Scattered Clouds
7:36 AM 35.6 °F 26.2 °F 28.4 °F 75% 29.61 in 10.0 mi SE 15.0 mph - N/A   Clear
7:56 AM 35.6 °F 25.5 °F 28.4 °F 75% 29.61 in 10.0 mi SE 17.3 mph - N/A   Clear
8:16 AM 35.6 °F 26.2 °F 28.4 °F 75% 29.61 in 10.0 mi SE 15.0 mph - N/A   Mostly Cloudy
8:56 AM 35.6 °F 27.5 °F 28.4 °F 75% 29.62 in 10.0 mi SE 11.5 mph - N/A   Mostly Cloudy
9:16 AM 35.6 °F 27.1 °F 28.4 °F 75% 29.62 in 10.0 mi SE 12.7 mph - N/A   Partly Cloudy
9:36 AM 35.6 °F 27.5 °F 28.4 °F 75% 29.63 in 10.0 mi SE 11.5 mph - N/A   Clear
9:56 AM 37.4 °F 28.2 °F 28.4 °F 70% 29.63 in 10.0 mi SSE 16.1 mph - N/A   Clear
10:16 AM 37.4 °F 27.8 °F 28.4 °F 70% 29.63 in 10.0 mi SE 17.3 mph - N/A   Clear
10:36 AM 39.2 °F 30.2 °F 30.2 °F 70% 29.64 in 10.0 mi SE 17.3 mph - N/A   Scattered Clouds
10:56 AM 37.4 °F 28.2 °F 28.4 °F 70% 29.64 in 10.0 mi SE 16.1 mph - N/A   Scattered Clouds
11:16 AM 39.2 °F 30.8 °F 28.4 °F 65% 29.64 in 10.0 mi SE 15.0 mph 23.0 mph N/A   Overcast
11:36 AM 39.2 °F 29.0 °F 28.4 °F 65% 29.65 in 10.0 mi SE 21.9 mph 25.3 mph N/A   Overcast
11:56 AM 39.2 °F 29.3 °F 30.2 °F 70% 29.65 in 10.0 mi SE 20.7 mph - N/A   Overcast
12:16 PM 39.2 °F 30.2 °F 28.4 °F 65% 29.66 in 10.0 mi SSE 17.3 mph 21.9 mph N/A   Mostly Cloudy
12:36 PM 39.2 °F 30.2 °F 30.2 °F 70% 29.67 in 10.0 mi SE 17.3 mph - N/A   Mostly Cloudy
12:56 PM 39.2 °F 30.5 °F 30.2 °F 70% 29.67 in 10.0 mi SE 16.1 mph - N/A   Overcast
1:16 PM 39.2 °F 30.8 °F 30.2 °F 70% 29.67 in 10.0 mi SE 15.0 mph - N/A   Overcast
1:36 PM 41.0 °F 32.5 °F 30.2 °F 65% 29.67 in 10.0 mi SE 17.3 mph - N/A   Mostly Cloudy
1:56 PM 41.0 °F 33.9 °F 30.2 °F 65% 29.67 in 10.0 mi SE 12.7 mph - N/A   Mostly Cloudy
2:16 PM 41.0 °F 32.8 °F 30.2 °F 65% 29.67 in 10.0 mi ESE 16.1 mph - N/A   Overcast
2:36 PM 39.2 °F 31.6 °F 28.4 °F 65% 29.68 in 10.0 mi ESE 12.7 mph - N/A   Overcast
2:56 PM 39.2 °F 32.5 °F 30.2 °F 70% 29.69 in 10.0 mi SE 10.4 mph - N/A   Overcast
3:16 PM 39.2 °F 32.5 °F 28.4 °F 65% 29.69 in 10.0 mi SE 10.4 mph - N/A   Overcast
3:36 PM 39.2 °F 31.6 °F 30.2 °F 70% 29.69 in 10.0 mi ESE 12.7 mph - N/A   Overcast
3:56 PM 39.2 °F 32.5 °F 30.2 °F 70% 29.69 in 10.0 mi ESE 10.4 mph - N/A   Overcast
4:16 PM 39.2 °F 31.6 °F 28.4 °F 65% 29.70 in 10.0 mi SE 12.7 mph - N/A   Overcast
4:36 PM 39.2 °F 32.0 °F 30.2 °F 70% 29.70 in 10.0 mi SE 11.5 mph - N/A   Overcast
4:56 PM 39.2 °F 31.6 °F 30.2 °F 70% 29.70 in 10.0 mi SE 12.7 mph - N/A   Overcast
5:16 PM 39.2 °F 33.0 °F 30.2 °F 70% 29.71 in 10.0 mi SE 9.2 mph - N/A   Overcast
5:36 PM 39.2 °F 33.0 °F 30.2 °F 70% 29.72 in 10.0 mi SSE 9.2 mph - N/A   Overcast
5:56 PM 39.2 °F 33.0 °F 30.2 °F 70% 29.72 in 10.0 mi SE 9.2 mph - N/A   Mostly Cloudy
6:16 PM 39.2 °F 34.2 °F 28.4 °F 65% 29.72 in 10.0 mi SE 6.9 mph - N/A   Overcast
6:36 PM 39.2 °F 33.0 °F 30.2 °F 70% 29.73 in 10.0 mi SE 9.2 mph - N/A   Overcast
6:56 PM 39.2 °F 33.0 °F 30.2 °F 70% 29.73 in 10.0 mi SE 9.2 mph - N/A   Overcast
7:16 PM 37.4 °F 31.4 °F 28.4 °F 70% 29.74 in 10.0 mi SE 8.1 mph - N/A   Overcast
7:36 PM 37.4 °F 30.8 °F 30.2 °F 75% 29.74 in 10.0 mi SSE 9.2 mph - N/A   Mostly Cloudy
7:56 PM 37.4 °F 30.3 °F 30.2 °F 75% 29.74 in 10.0 mi SSE 10.4 mph - N/A   Mostly Cloudy
8:16 PM 37.4 °F 30.8 °F 28.4 °F 70% 29.75 in 10.0 mi SSE 9.2 mph - N/A   Overcast
8:36 PM 35.6 °F 29.9 °F 28.4 °F 75% 29.76 in 10.0 mi South 6.9 mph - N/A   Overcast
8:56 PM 35.6 °F 29.9 °F 28.4 °F 75% 29.77 in 10.0 mi South 6.9 mph - N/A   Overcast
9:16 PM 35.6 °F 29.2 °F 28.4 °F 75% 29.78 in 10.0 mi SSW 8.1 mph - N/A   Overcast
9:36 PM 35.6 °F 27.5 °F 28.4 °F 75% 29.79 in 10.0 mi South 11.5 mph - N/A   Mostly Cloudy
9:56 PM 33.8 °F 28.6 °F 28.4 °F 81% 29.80 in 10.0 mi SSW 5.8 mph - N/A   Partly Cloudy
10:16 PM 33.8 °F 26.4 °F 26.6 °F 75% 29.81 in 10.0 mi South 9.2 mph - N/A   Partly Cloudy
10:36 PM 33.8 °F 26.4 °F 26.6 °F 75% 29.82 in 10.0 mi South 9.2 mph - N/A   Clear
10:56 PM 33.8 °F 27.7 °F 26.6 °F 75% 29.83 in 10.0 mi South 6.9 mph - N/A   Clear
11:16 PM 33.8 °F 27.7 °F 26.6 °F 75% 29.84 in 10.0 mi South 6.9 mph - N/A   Clear
11:36 PM 33.8 °F 28.6 °F 26.6 °F 75% 29.84 in 10.0 mi South 5.8 mph - N/A   Mostly Cloudy
11:56 PM 32.0 °F 27.5 °F 26.6 °F 80% 29.85 in 10.0 mi SSW 4.6 mph - N/A   Mostly Cloudy